{"data":{"norad_id":57337,"intl_designator":"2023-099K","name":"STARLINK-6322","alt_names":[],"object_type":"PAYLOAD","status":"ACTIVE","operator":null,"country":"US","launch_date":"2023-07-16","launch_site_code":"AFETR","launch_vehicle":null,"mission":null,"orbit_class":"UNKNOWN","rcs_meters":null,"size_class":null,"mass_kg":null,"dimensions":null,"purposes":["comms"],"wikipedia_slug":null,"has_3d_model":false,"image_url":null,"decayed_at":null,"tle_current":{"epoch":"2026-09-20T14:26:12.422688Z","epoch_age_seconds":115447,"freshness":"FRESH","line1":"1 57337U 23099K   26263.60153267  .00002593  00000+0  10375-3 0  9994","line2":"2 57337  43.0006 231.8137 0000902 331.1020  28.9782 15.27569476175883","mean_motion":15.27569476,"eccentricity":9.02e-5,"inclination_deg":43.0006,"raan_deg":231.8137,"arg_perigee_deg":331.102,"mean_anomaly_deg":28.9782,"bstar":0.00010375,"rev_number":17588,"period_min":94.267398152698,"perigee_km":482.46172703424,"apogee_km":483.69949069088,"semimajor_km":6861.2176088626,"source":"CELESTRAK","updated_at":"2026-09-21T09:00:33.597614Z"}}}